Location: Clanezzo
(45.7500°N, 9.6000°E)
Time: 16:29:36
(UTC+00:00)

SPROUT - Pass Details

Date: 06 July 2022
Orbit: 588 x 598 km, 97.9° (Epoch: 19 August)

Event Time Altitude Azimuth Distance (km) Brightness Sun altitude
Exits shadow 23:40:03 36° 112° (ESE) 947 ? -21.6°
Maximum altitude 23:41:10 45° 71° (ENE) 814 ? -21.6°
Drops below altitude 10° 23:45:09 10° 359° (N) 1,929 ? -21.5°
Sets 23:47:23 0° 353° (N) 2,837 ? -21.5°
